Vorticity
nan nan nan nan nan nan nan nan nan nan nan nan nan nan nan nan nan nan nan nan nan nan nan nan nan nan nan nan nan nan nan nan nan nan nan nan nan nan nan nan nan nan nan
nan 9 7 6 4 4 7 7 5 3 4 3 4 4 1 1 6 5 4 9 8 4 5 6 9 8 5 8 4 2 5 4 3 2 6 6 3 9 6 1 3 8 nan
nan 9 7 5 5 7 7 5 3 3 4 4 4 5 5 4 5 6 6 6 4 7 4 4 5 3 5 7 9 5 3 4 5 4 5 9 6 9 3 3 2 7 nan
nan 8 8 6 8 7 4 4 4 4 4 4 3 4 10 5 4 5 3 4 5 6 5 4 4 4 4 5 8 6 5 5 4 5 7 7 9 5 3 4 6 4 nan
nan 6 10 8 7 6 5 4 4 5 4 4 4 3 6 8 6 7 6 5 4 4 4 4 7 5 3 3 4 7 6 7 7 3 7 6 8 5 5 5 7 5 nan
nan 7 6 6 6 6 7 6 4 4 5 5 5 6 3 8 10 6 7 5 4 3 5 5 5 5 6 5 5 5 6 9 4 3 6 7 6 5 5 6 5 6 nan
nan 8 5 6 6 6 4 3 5 5 6 5 6 5 5 11 9 6 7 2 2 3 5 5 5 4 5 6 6 7 6 7 6 5 7 7 6 5 4 4 6 7 nan
nan 7 7 7 7 6 5 5 4 4 4 4 6 4 4 13 16 14 9 5 3 3 4 5 7 6 6 5 6 6 7 9 7 7 6 7 7 7 7 5 7 5 nan
nan 7 6 7 7 4 6 7 6 7 5 5 6 7 7 6 8 14 10 6 5 4 3 4 6 7 7 6 6 7 9 7 5 8 8 9 7 4 6 8 5 5 nan
nan 6 5 6 7 7 6 6 6 7 6 6 5 5 6 5 3 2 6 5 2 6 5 5 5 5 6 7 7 8 8 9 9 7 8 7 5 4 5 6 7 6 nan
nan 6 5 6 5 6 7 7 7 7 5 7 8 5 5 5 4 4 5 4 5 5 5 5 6 5 7 12 12 8 7 7 10 8 9 8 5 5 5 6 6 6 nan
nan 7 6 6 6 6 7 6 8 8 7 7 5 5 7 8 6 6 7 9 8 9 9 9 8 10 10 9 14 9 2 5 8 8 7 8 7 6 6 7 6 6 nan
nan 8 8 6 6 6 6 7 8 7 8 8 7 6 6 8 8 7 8 8 11 10 8 10 11 9 7 7 5 5 5 7 8 8 8 10 8 6 6 7 7 7 nan
nan 7 8 7 7 6 6 7 6 7 7 7 9 7 7 7 7 7 7 7 8 6 7 8 7 7 8 7 6 6 7 7 5 7 12 12 10 7 6 7 7 8 nan
nan 9 9 8 7 8 6 5 7 7 7 7 7 7 7 6 6 7 7 7 8 7 8 8 7 8 9 9 9 9 8 7 6 5 10 13 13 8 6 7 7 8 nan
nan 10 11 11 9 7 8 6 6 7 7 7 7 7 7 7 6 7 8 8 8 8 7 8 8 8 9 9 8 9 9 9 9 6 6 12 14 12 8 6 7 7 nan
nan 11 14 17 15 10 8 8 7 8 8 8 8 8 9 9 8 8 8 8 8 8 8 9 9 9 9 8 9 9 10 10 9 9 9 8 13 18 14 8 9 9 nan
nan 10 16 19 18 14 10 9 10 10 10 10 10 10 10 11 11 11 10 9 9 10 10 9 9 10 8 8 9 9 9 10 9 11 9 8 8 11 19 17 11 10 nan
nan 11 13 15 16 15 11 9 10 10 11 10 10 10 12 12 13 12 11 10 10 10 9 9 8 9 9 9 9 8 9 9 10 11 10 9 9 9 7 14 19 16 nan
nan 12 11 12 12 10 9 9 8 8 9 9 10 10 10 9 11 11 8 7 9 9 8 7 8 9 9 9 9 10 10 8 10 9 14 11 9 8 8 9 11 20 nan
nan 10 10 11 12 11 9 8 8 8 7 7 6 7 7 7 7 9 8 6 8 7 7 8 8 9 10 9 9 9 14 9 8 10 8 9 9 10 10 10 8 8 nan
nan 8 9 9 11 12 11 9 9 7 6 7 5 4 5 7 8 8 9 8 8 8 7 8 9 10 8 8 11 10 11 12 4 8 8 6 11 14 10 11 8 5 nan
nan 7 9 8 9 11 12 10 9 7 6 5 6 5 5 7 7 8 8 8 9 9 8 7 8 10 10 7 10 12 7 7 7 6 13 8 6 13 8 7 9 12 nan
nan 7 7 8 8 9 9 8 8 9 8 7 7 8 6 5 7 8 8 9 10 9 8 8 8 9 9 10 9 8 7 8 9 10 8 10 5 6 12 9 7 9 nan
nan 7 7 7 7 8 9 10 9 9 8 7 7 7 7 6 5 8 9 9 10 9 7 8 8 9 9 8 8 7 10 9 8 9 6 10 8 7 10 11 9 5 nan
nan nan nan nan nan nan nan nan nan nan nan nan nan nan nan nan nan nan nan nan nan nan nan nan nan nan nan nan nan nan nan nan nan nan nan nan nan nan nan nan nan nan nan
CAPE
32 15 469 400 706 492 439 220 74 12 1 0 0 0 1 40 26 3 20 7 4 4 5 0 0 17 47 56 38 37 21 20 3 3 3 0 3 20 16 0 0 2 0
23 18 579 890 637 494 410 197 82 8 0 0 0 0 0 0 0 0 3 33 8 5 2 3 2 6 18 26 14 21 18 22 3 0 0 0 0 7 7 0 0 19 14
30 28 783 1250 886 575 456 164 72 30 5 0 2 2 1 10 9 15 28 24 13 3 1 0 2 17 28 28 21 19 5 12 2 0 0 0 0 2 3 0 0 19 41
40 44 164 1007 919 812 387 231 115 48 14 0 0 14 8 24 13 19 16 13 5 3 0 0 1 5 13 18 24 23 14 7 0 0 0 0 0 0 1 0 0 15 26
67 88 237 1435 979 746 439 345 219 122 65 6 0 13 26 46 27 19 13 6 0 0 0 0 0 9 11 12 15 21 18 19 2 0 0 0 6 0 0 11 4 0 25
94 139 592 1493 1238 1086 539 473 260 189 91 55 7 6 21 43 56 25 19 8 0 0 0 0 0 0 1 8 15 31 15 36 6 9 0 0 4 9 0 1 12 3 14
124 184 228 1199 1033 968 557 377 269 247 120 68 9 18 37 42 248 32 25 16 5 3 1 8 15 9 3 0 1 6 20 28 17 27 4 0 2 8 17 17 11 14 11
183 294 183 736 1418 1245 752 645 366 316 237 134 13 19 28 104 229 132 46 21 15 14 9 6 25 28 28 25 23 15 19 39 9 20 16 3 0 0 23 33 13 21 14
263 371 291 280 803 1200 973 834 686 539 307 205 49 0 29 24 30 38 28 27 25 29 17 11 21 28 46 49 39 30 46 43 20 10 12 10 3 0 4 28 21 24 32
376 445 472 466 603 613 599 620 594 514 338 269 178 93 11 0 0 0 6 13 7 14 10 0 0 1 2 21 9 9 13 12 0 3 1 2 0 1 0 2 20 24 26
297 492 579 529 665 651 542 434 469 376 291 152 69 20 0 0 2 0 0 0 0 0 0 0 0 0 6 6 9 1 0 0 0 0 0 0 0 7 6 2 2 14 22
123 314 529 653 694 701 568 503 396 292 236 120 21 0 0 0 0 0 0 0 0 0 0 0 0 0 1 0 0 0 1 0 0 0 0 0 0 0 0 2 2 1 5
9 96 323 644 747 751 698 583 426 338 246 143 52 1 0 0 0 0 0 0 0 0 0 0 1 0 0 0 0 0 1 1 0 0 0 0 0 0 0 0 2 3 0
0 3 82 323 626 733 749 655 470 370 252 152 59 5 0 0 0 0 0 0 0 0 1 2 1 1 1 2 1 1 0 1 1 0 0 0 0 0 0 0 0 0 4
5 11 13 77 300 538 675 617 537 389 249 146 111 19 0 0 0 1 3 2 3 3 2 3 2 3 3 2 0 0 0 0 0 0 0 0 0 0 0 0 0 0 0
0 0 0 3 67 250 445 519 436 364 253 184 103 46 0 0 0 1 1 2 2 5 3 2 2 2 1 2 1 5 4 5 2 1 2 0 0 0 0 0 0 0 0
0 0 0 0 0 103 259 360 339 272 129 128 55 13 0 0 0 0 1 1 17 6 4 15 6 7 9 11 13 10 12 8 4 3 3 1 0 0 0 0 0 0 0
0 0 0 0 0 7 119 181 135 77 38 12 0 0 0 0 0 0 3 8 5 4 7 8 7 7 10 11 12 7 13 9 6 2 1 0 0 0 0 0 0 0 9
0 0 0 0 0 9 28 25 7 0 0 0 0 0 0 0 0 2 1 0 0 0 0 1 1 1 3 6 10 8 5 5 4 5 6 2 0 0 0 0 0 0 0
0 0 0 0 0 4 23 41 41 3 0 0 0 0 0 0 0 0 0 0 0 0 0 0 0 0 0 1 1 1 5 0 4 14 26 28 43 16 6 0 0 0 0
0 0 0 0 1 25 83 11 0 0 0 0 0 0 0 0 0 0 0 0 0 0 0 0 0 0 0 0 0 0 0 0 0 1 35 3 17 51 83 100 87 57 40
0 0 0 0 0 0 0 0 0 0 0 0 0 0 0 0 0 0 0 0 0 0 0 0 0 0 0 0 0 0 0 0 0 0 0 0 1 0 46 106 119 119 142
0 0 0 0 0 0 0 0 0 0 0 0 0 0 0 0 0 0 0 0 0 0 0 0 0 0 0 0 0 0 0 0 1 0 0 0 1 0 7 21 9 27 90
0 0 0 0 0 0 0 0 0 0 0 0 0 0 0 0 0 0 0 0 0 0 0 0 0 0 0 0 0 0 0 0 5 1 0 0 0 1 0 6 6 2 3
0 0 0 0 0 0 0 0 0 0 0 0 0 0 0 0 0 0 0 0 0 0 0 0 0 0 0 0 0 0 0 0 0 0 0 0 0 0 0 3 9 16 8
0 0 0 0 0 0 0 0 0 0 0 0 0 0 0 0 0 0 0 0 0 0 0 0 0 0 0 0 0 0 0 0 0 0 0 0 0 0 0 0 1 24 64